UAE7 OMDB-EGLL

Flight info

Callsign UAE7
Flight time N/A
Altitude 38000
Route SENPA N571 ALPOB L768 ULADA Q143 MEDGO N697 HIL A788 HLF L604 WEJ L677 CVO L617 NOZ L551 ANTAR/N0475F400 UN133 KPC DCT FSK DCT DISOR DCT LONTA UL608 DOLEV DCT BOSNA DCT MARIL DCT OKSIG DCT KUSIB DCT GORPA DCT DOL DCT NIPEL DCT MODSA DCT BABEG DCT LIRSU DCT ARCKY DCT BUB L608 LOGAN
Aircraft B772/H-SDE2E3FGHIJ5LORVWXY/LB1D1

Departure

Time 2026-05-05 09:44
Airport Dubai International Airport (OMDB)

Arrival

Time N/A
Airport London Heathrow Airport (EGLL)
Time Latitude Longitude Altitude Speed Heading
2026-05-05 08:58 25.24556 55.36963 26 ft 0 kts 167°
2026-05-05 09:30 25.24567 55.36961 31 ft 4 kts 167°
2026-05-05 09:30 25.24593 55.36954 31 ft 4 kts 167°
2026-05-05 09:30 25.24614 55.36949 31 ft 4 kts 162°
2026-05-05 09:31 25.24636 55.36935 31 ft 4 kts 123°
2026-05-05 09:31 25.24646 55.36908 35 ft 4 kts 101°
2026-05-05 09:31 25.24645 55.36881 45 ft 4 kts 53°
2026-05-05 09:31 25.24627 55.36865 23 ft 4 kts 31°
2026-05-05 09:32 25.24610 55.36853 29 ft 0 kts 31°
2026-05-05 09:35 25.24668 55.36892 22 ft 6 kts 31°
2026-05-05 09:35 25.24719 55.36926 29 ft 12 kts 30°
2026-05-05 09:36 25.24807 55.36932 31 ft 14 kts 319°
2026-05-05 09:36 25.24854 55.36822 29 ft 18 kts 285°
2026-05-05 09:36 25.24893 55.36674 27 ft 22 kts 296°
2026-05-05 09:36 25.24972 55.36523 31 ft 22 kts 302°
2026-05-05 09:37 25.25055 55.36378 31 ft 22 kts 302°
2026-05-05 09:37 25.25135 55.36234 29 ft 22 kts 302°
2026-05-05 09:37 25.25220 55.36086 29 ft 22 kts 302°
2026-05-05 09:37 25.25302 55.35939 28 ft 22 kts 302°
2026-05-05 09:38 25.25383 55.35794 27 ft 22 kts 302°
2026-05-05 09:38 25.25410 55.35747 28 ft 5 kts 302°
2026-05-05 09:38 25.25439 55.35695 30 ft 12 kts 302°
2026-05-05 09:38 25.25496 55.35593 28 ft 19 kts 300°
2026-05-05 09:39 25.25572 55.35458 29 ft 21 kts 302°
2026-05-05 09:39 25.25651 55.35317 30 ft 21 kts 301°
2026-05-05 09:39 25.25710 55.35219 30 ft 14 kts 318°
2026-05-05 09:39 25.25801 55.35236 30 ft 14 kts 31°
2026-05-05 09:40 25.25887 55.35294 28 ft 14 kts 31°
2026-05-05 09:40 25.25973 55.35350 29 ft 14 kts 31°
2026-05-05 09:40 25.26059 55.35401 32 ft 11 kts
2026-05-05 09:40 25.26110 55.35343 26 ft 12 kts 298°
2026-05-05 09:41 25.26159 55.35254 27 ft 15 kts 302°
2026-05-05 09:41 25.26219 55.35147 27 ft 18 kts 302°
2026-05-05 09:41 25.26285 55.35031 28 ft 18 kts 302°
2026-05-05 09:41 25.26352 55.34912 28 ft 18 kts 302°
2026-05-05 09:42 25.26420 55.34791 27 ft 19 kts 302°
2026-05-05 09:42 25.26490 55.34668 27 ft 19 kts 302°
2026-05-05 09:42 25.26577 55.34608 28 ft 14 kts 16°
2026-05-05 09:42 25.26645 55.34650 28 ft 7 kts 31°
2026-05-05 09:43 25.26660 55.34685 28 ft 3 kts 108°
2026-05-05 09:43 25.26645 55.34712 28 ft 9 kts 121°
2026-05-05 09:43 25.26525 55.34930 28 ft 66 kts 121°
2026-05-05 09:43 25.26167 55.35575 27 ft 132 kts 121°
2026-05-05 09:44 25.25574 55.36657 41 ft 187 kts 120°
2026-05-05 09:44 25.25097 55.37492 457 ft 186 kts 123°
2026-05-05 09:44 25.24151 55.39035 1556 ft 179 kts 124°
2026-05-05 09:44 25.23484 55.40191 2114 ft 178 kts 117°
2026-05-05 09:45 25.23074 55.41008 2261 ft 189 kts 118°
2026-05-05 09:45 25.22136 55.42762 2561 ft 212 kts 121°
2026-05-05 09:45 25.21188 55.44097 2831 ft 225 kts 139°
2026-05-05 09:45 25.19753 55.44751 3166 ft 235 kts 175°
2026-05-05 09:46 25.18624 55.44620 3480 ft 242 kts 198°
2026-05-05 09:46 25.17177 55.43682 3926 ft 244 kts 212°
2026-05-05 09:46 25.15729 55.42668 4335 ft 247 kts 207°
2026-05-05 09:46 25.14338 55.41567 4769 ft 250 kts 226°
2026-05-05 09:47 25.13639 55.39802 5181 ft 259 kts 267°
2026-05-05 09:47 25.13973 55.37854 5706 ft 254 kts 290°
2026-05-05 09:47 25.14419 55.35974 6057 ft 260 kts 275°
2026-05-05 09:47 25.14539 55.33996 6521 ft 261 kts 274°
2026-05-05 09:48 25.14730 55.31950 6944 ft 267 kts 276°
2026-05-05 09:48 25.14972 55.29941 7581 ft 262 kts 282°
2026-05-05 09:48 25.15445 55.27943 7758 ft 280 kts 287°
2026-05-05 09:48 25.16007 55.25850 8029 ft 292 kts 287°
2026-05-05 09:49 25.16577 55.23655 8533 ft 297 kts 287°
2026-05-05 09:49 25.17139 55.21476 9073 ft 300 kts 287°
2026-05-05 09:49 25.17703 55.19253 9650 ft 303 kts 287°
2026-05-05 09:49 25.18274 55.16984 10103 ft 307 kts 286°
2026-05-05 09:50 25.18854 55.14670 10442 ft 322 kts 286°
2026-05-05 09:50 25.19469 55.12210 10602 ft 343 kts 286°
2026-05-05 09:50 25.20119 55.09601 10882 ft 360 kts 286°
2026-05-05 09:50 25.20784 55.06912 11528 ft 365 kts 286°
2026-05-05 09:51 25.21452 55.04199 12364 ft 366 kts 285°
2026-05-05 09:51 25.22122 55.01474 12970 ft 365 kts 285°
2026-05-05 09:51 25.22759 54.98761 13020 ft 368 kts 284°
2026-05-05 09:51 25.23356 54.95998 13031 ft 370 kts 284°
2026-05-05 09:52 25.23946 54.93262 13026 ft 370 kts 284°
2026-05-05 09:52 25.24549 54.90498 13028 ft 369 kts 284°
2026-05-05 09:52 25.25151 54.87748 13024 ft 368 kts 284°
2026-05-05 09:52 25.25751 54.85007 13022 ft 367 kts 284°
2026-05-05 09:53 25.26350 54.82267 13028 ft 366 kts 284°
2026-05-05 09:53 25.26950 54.79525 13023 ft 366 kts 284°
2026-05-05 09:53 25.27548 54.76786 13024 ft 366 kts 284°
2026-05-05 09:53 25.28145 54.74050 13025 ft 366 kts 285°
2026-05-05 09:54 25.28801 54.71322 13028 ft 367 kts 287°
2026-05-05 09:54 25.29508 54.68575 13031 ft 367 kts 287°
2026-05-05 09:54 25.30197 54.65909 13027 ft 368 kts 287°
2026-05-05 09:54 25.30890 54.63194 13024 ft 368 kts 287°
2026-05-05 09:55 25.31574 54.60492 13027 ft 368 kts 286°
2026-05-05 09:55 25.32259 54.57765 13024 ft 368 kts 286°
2026-05-05 09:55 25.32943 54.55037 13023 ft 369 kts 286°
2026-05-05 09:55 25.33635 54.52309 13031 ft 368 kts 287°
2026-05-05 09:56 25.34375 54.49558 13028 ft 368 kts 288°
2026-05-05 09:56 25.35120 54.46841 13030 ft 368 kts 288°
2026-05-05 09:56 25.35851 54.44173 13030 ft 368 kts 288°
2026-05-05 09:56 25.36589 54.41465 13151 ft 369 kts 288°
2026-05-05 09:57 25.37331 54.38732 13881 ft 372 kts 288°
2026-05-05 09:57 25.38072 54.35993 14699 ft 372 kts 287°
2026-05-05 09:57 25.38817 54.33236 15440 ft 375 kts 287°
2026-05-05 09:57 25.39569 54.30449 16175 ft 380 kts 287°
2026-05-05 09:58 25.40328 54.27630 16926 ft 384 kts 286°
2026-05-05 09:58 25.41052 54.24776 17700 ft 387 kts 285°
2026-05-05 09:58 25.41758 54.21887 18390 ft 391 kts 284°
2026-05-05 09:58 25.42473 54.18949 19069 ft 395 kts 284°
2026-05-05 09:59 25.43187 54.16036 19748 ft 398 kts 285°
2026-05-05 09:59 25.43929 54.13027 20458 ft 402 kts 285°
2026-05-05 09:59 25.44658 54.10070 21152 ft 405 kts 285°
2026-05-05 09:59 25.45409 54.07011 21857 ft 409 kts 285°
2026-05-05 10:00 25.46143 54.04000 22528 ft 412 kts 285°
2026-05-05 10:00 25.46897 54.00900 23192 ft 416 kts 285°
2026-05-05 10:00 25.47653 53.97789 23776 ft 420 kts 284°
2026-05-05 10:00 25.48413 53.94663 24388 ft 421 kts 284°
2026-05-05 10:01 25.49172 53.91535 25021 ft 421 kts 284°
2026-05-05 10:01 25.49933 53.88396 25615 ft 422 kts 284°
2026-05-05 10:01 25.50696 53.85246 26161 ft 425 kts 284°
2026-05-05 10:01 25.51463 53.82080 26685 ft 427 kts 284°
2026-05-05 10:02 25.52233 53.78896 27204 ft 429 kts 283°
2026-05-05 10:02 25.53013 53.75667 27711 ft 431 kts 283°
2026-05-05 10:02 25.53776 53.72487 28149 ft 434 kts 283°
2026-05-05 10:02 25.54537 53.69279 28578 ft 436 kts 283°
2026-05-05 10:03 25.55309 53.66013 28809 ft 440 kts 283°
2026-05-05 10:03 25.56081 53.62740 28788 ft 438 kts 283°
2026-05-05 10:03 25.57612 53.56255 28777 ft 434 kts 283°
2026-05-05 10:04 25.59138 53.49776 28788 ft 435 kts 283°
2026-05-05 10:04 25.60672 53.43257 28786 ft 437 kts 283°
2026-05-05 10:05 25.62206 53.36748 28784 ft 437 kts 283°
2026-05-05 10:05 25.63737 53.30280 28785 ft 436 kts 283°
2026-05-05 10:06 25.65273 53.23778 28776 ft 436 kts 283°
2026-05-05 10:06 25.66801 53.17281 28796 ft 435 kts 282°
2026-05-05 10:07 25.68323 53.10800 28779 ft 434 kts 282°
2026-05-05 10:07 25.69847 53.04338 28784 ft 433 kts 283°
2026-05-05 10:08 25.72031 52.98110 28782 ft 436 kts 294°
2026-05-05 10:08 25.74937 52.92190 28783 ft 436 kts 295°
2026-05-05 10:09 25.77749 52.86224 28787 ft 436 kts 294°
2026-05-05 10:09 25.80556 52.80246 28783 ft 437 kts 294°
2026-05-05 10:10 25.83373 52.74267 28779 ft 437 kts 294°
2026-05-05 10:10 25.86177 52.68310 28783 ft 438 kts 294°
2026-05-05 10:11 25.89002 52.62303 28784 ft 438 kts 294°
2026-05-05 10:11 25.91768 52.56264 28781 ft 438 kts 293°
2026-05-05 10:12 25.94440 52.50187 28782 ft 438 kts 293°
2026-05-05 10:12 25.97124 52.44112 28776 ft 437 kts 293°
2026-05-05 10:13 25.99793 52.38095 28789 ft 437 kts 293°
2026-05-05 10:13 26.02488 52.32046 28784 ft 436 kts 293°
2026-05-05 10:14 26.05182 52.25994 28786 ft 436 kts 293°
2026-05-05 10:14 26.07869 52.19941 28784 ft 436 kts 293°
2026-05-05 10:15 26.10556 52.13880 28781 ft 436 kts 292°
2026-05-05 10:15 26.13237 52.07820 28780 ft 436 kts 292°
2026-05-05 10:16 26.15910 52.01774 28778 ft 435 kts 292°
2026-05-05 10:16 26.18589 51.95767 28778 ft 435 kts 293°
2026-05-05 10:17 26.21298 51.89744 28780 ft 435 kts 292°
2026-05-05 10:17 26.23966 51.83698 28801 ft 434 kts 292°
2026-05-05 10:18 26.26638 51.77671 28782 ft 433 kts 292°
2026-05-05 10:18 26.29320 51.71671 28780 ft 432 kts 292°
2026-05-05 10:19 26.31991 51.65679 28776 ft 431 kts 292°
2026-05-05 10:19 26.34653 51.59692 28779 ft 431 kts 292°
2026-05-05 10:20 26.37312 51.53698 28774 ft 431 kts 292°
2026-05-05 10:20 26.39473 51.47501 28789 ft 427 kts 285°
2026-05-05 10:21 26.41417 51.41213 28777 ft 428 kts 287°
2026-05-05 10:21 26.43427 51.34958 28779 ft 429 kts 287°
2026-05-05 10:22 26.45132 51.29763 28768 ft 429 kts 287°
2026-05-05 10:22 26.47493 51.22480 28777 ft 429 kts 286°
2026-05-05 10:23 26.49166 51.17204 28780 ft 430 kts 286°
2026-05-05 10:23 26.51156 51.10920 28785 ft 429 kts 286°
2026-05-05 10:24 26.53135 51.04675 28779 ft 428 kts 286°
2026-05-05 10:24 26.55119 50.98410 28778 ft 427 kts 286°
2026-05-05 10:25 26.57098 50.92148 28778 ft 427 kts 286°
2026-05-05 10:25 26.59038 50.85891 28776 ft 427 kts 285°
2026-05-05 10:26 26.60957 50.79606 28782 ft 427 kts 285°
2026-05-05 10:26 26.62879 50.73324 28788 ft 427 kts 285°
2026-05-05 10:27 26.64795 50.67046 28776 ft 426 kts 285°
2026-05-05 10:27 26.66665 50.60760 28777 ft 424 kts 285°
2026-05-05 10:28 26.68522 50.54495 28779 ft 424 kts 285°
2026-05-05 10:28 26.70369 50.48273 28780 ft 424 kts 285°
2026-05-05 10:29 26.72049 50.41945 28785 ft 423 kts 282°
2026-05-05 10:29 26.73652 50.35596 28663 ft 425 kts 283°
2026-05-05 10:30 26.74460 50.32484 28749 ft 410 kts 283°
2026-05-05 10:30 26.75204 50.29384 28779 ft 416 kts 279°
2026-05-05 10:30 26.75902 50.22876 28768 ft 422 kts 269°
2026-05-05 10:31 26.75895 50.16354 28766 ft 417 kts 269°
2026-05-05 10:31 26.75966 50.09892 28770 ft 415 kts 269°
2026-05-05 10:32 26.76031 50.03434 28758 ft 416 kts 269°
2026-05-05 10:32 26.76087 49.96969 28743 ft 418 kts 269°
2026-05-05 10:33 26.76136 49.90450 28754 ft 420 kts 268°
2026-05-05 10:33 26.76175 49.83906 28746 ft 421 kts 268°
2026-05-05 10:34 26.76212 49.77334 28745 ft 421 kts 268°
2026-05-05 10:34 26.76246 49.70783 28726 ft 420 kts 268°
2026-05-05 10:35 26.76278 49.64298 28725 ft 419 kts 268°
2026-05-05 10:35 26.76307 49.57784 28726 ft 418 kts 268°
2026-05-05 10:36 26.76341 49.51290 28753 ft 417 kts 268°
2026-05-05 10:36 26.76373 49.44792 28740 ft 417 kts 268°
2026-05-05 10:37 26.76402 49.38294 28737 ft 417 kts 268°
2026-05-05 10:37 26.76433 49.31802 28741 ft 417 kts 268°
2026-05-05 10:38 26.76465 49.25314 28744 ft 417 kts 268°
2026-05-05 10:38 26.76492 49.18821 28727 ft 417 kts 268°
2026-05-05 10:39 26.76517 49.12332 28754 ft 417 kts 268°
2026-05-05 10:39 26.76538 49.05851 28750 ft 416 kts 268°
2026-05-05 10:40 26.76556 48.99442 28736 ft 414 kts 268°
2026-05-05 10:40 26.76571 48.93009 28745 ft 412 kts 268°
2026-05-05 10:41 26.76583 48.86601 28743 ft 411 kts 268°
2026-05-05 10:41 26.76592 48.80192 28749 ft 411 kts 268°
2026-05-05 10:42 26.76601 48.70614 28750 ft 412 kts 268°
2026-05-05 10:43 26.76477 48.64201 28762 ft 412 kts 266°
2026-05-05 10:43 26.76269 48.57778 28754 ft 412 kts 266°
2026-05-05 10:44 26.76076 48.51368 28760 ft 412 kts 266°
2026-05-05 10:44 26.75891 48.44958 28761 ft 412 kts 266°
2026-05-05 10:45 26.75707 48.38597 28772 ft 412 kts 266°
2026-05-05 10:45 26.75522 48.32190 28764 ft 411 kts 266°
2026-05-05 10:46 26.75353 48.25797 28768 ft 411 kts 266°
2026-05-05 10:46 26.75183 48.19412 28775 ft 410 kts 266°
2026-05-05 10:47 26.75009 48.13035 28778 ft 410 kts 266°
2026-05-05 10:47 26.74830 48.06652 28775 ft 410 kts 266°
2026-05-05 10:48 26.74649 48.00258 28775 ft 409 kts 266°
2026-05-05 10:48 26.74466 47.93934 28776 ft 409 kts 266°
2026-05-05 10:49 26.74307 47.87567 28777 ft 409 kts 268°
2026-05-05 10:49 26.74619 47.81192 28793 ft 410 kts 271°
2026-05-05 10:50 26.74976 47.74820 28780 ft 409 kts 270°
2026-05-05 10:50 26.75302 47.68463 28775 ft 409 kts 270°
2026-05-05 10:51 26.75615 47.62145 28783 ft 408 kts 270°
2026-05-05 10:51 26.75925 47.55801 28784 ft 408 kts 270°
2026-05-05 10:52 26.76233 47.49454 28787 ft 408 kts 270°
2026-05-05 10:52 26.76538 47.43115 28794 ft 408 kts 270°
2026-05-05 10:53 26.76897 47.36766 28786 ft 410 kts 273°
2026-05-05 10:53 26.77882 47.30458 28800 ft 412 kts 276°
2026-05-05 10:54 26.78872 47.24166 28805 ft 412 kts 276°
2026-05-05 10:54 26.79842 47.17822 28792 ft 412 kts 276°
2026-05-05 10:55 26.80804 47.11498 28813 ft 412 kts 276°
2026-05-05 10:55 26.81760 47.05204 28818 ft 412 kts 276°
2026-05-05 10:56 26.82719 46.98875 28815 ft 412 kts 276°
2026-05-05 10:56 26.83677 46.92528 28819 ft 413 kts 277°
2026-05-05 10:57 26.84631 46.86198 28830 ft 415 kts 276°
2026-05-05 10:57 26.85590 46.79809 28823 ft 416 kts 276°
2026-05-05 10:58 26.86549 46.73407 28821 ft 416 kts 276°
2026-05-05 10:58 26.87503 46.67010 28820 ft 415 kts 276°
2026-05-05 10:59 26.88451 46.60636 28824 ft 415 kts 276°
2026-05-05 10:59 26.89397 46.54259 28829 ft 414 kts 276°
2026-05-05 11:00 26.90338 46.47885 28827 ft 413 kts 276°
2026-05-05 11:00 26.91268 46.41572 28837 ft 413 kts 276°
2026-05-05 11:01 26.92206 46.35223 28838 ft 412 kts 276°
2026-05-05 11:01 26.93152 46.28885 28834 ft 412 kts 276°
2026-05-05 11:02 26.94096 46.22542 28838 ft 412 kts 276°
2026-05-05 11:02 26.95027 46.16248 28833 ft 412 kts 276°
2026-05-05 11:03 26.95962 46.09910 28836 ft 412 kts 276°
2026-05-05 11:03 26.96892 46.03576 28856 ft 412 kts 276°
2026-05-05 11:04 26.97821 45.97235 28841 ft 412 kts 276°
2026-05-05 11:04 26.98747 45.90896 28842 ft 412 kts 276°
2026-05-05 11:05 26.99669 45.84557 28847 ft 411 kts 276°
2026-05-05 11:05 27.00587 45.78228 28852 ft 411 kts 276°
2026-05-05 11:06 27.01348 45.72963 28854 ft 411 kts 276°
2026-05-05 11:06 27.02261 45.66630 28858 ft 411 kts 276°
2026-05-05 11:07 27.03173 45.60288 28868 ft 412 kts 276°
2026-05-05 11:07 27.04077 45.53952 28861 ft 411 kts 275°
2026-05-05 11:08 27.04967 45.47605 28864 ft 411 kts 275°
2026-05-05 11:08 27.05813 45.41257 28864 ft 410 kts 274°
2026-05-05 11:09 27.06515 45.34904 28873 ft 410 kts 274°
2026-05-05 11:09 27.07204 45.28549 28874 ft 410 kts 274°
2026-05-05 11:10 27.07904 45.22199 28891 ft 410 kts 274°
2026-05-05 11:10 27.08609 45.15840 28881 ft 410 kts 274°
2026-05-05 11:11 27.09311 45.09501 28879 ft 409 kts 274°
2026-05-05 11:11 27.10009 45.03167 28876 ft 408 kts 274°
2026-05-05 11:12 27.10702 44.96843 28932 ft 408 kts 274°
2026-05-05 11:12 27.11393 44.90516 28918 ft 408 kts 274°
2026-05-05 11:13 27.12075 44.84246 28917 ft 407 kts 274°
2026-05-05 11:13 27.12758 44.77934 28921 ft 407 kts 274°
2026-05-05 11:14 27.13441 44.71608 28908 ft 407 kts 274°
2026-05-05 11:14 27.14119 44.65288 28913 ft 407 kts 273°
2026-05-05 11:15 27.14794 44.58963 28922 ft 407 kts 273°
2026-05-05 11:15 27.15466 44.52647 28908 ft 408 kts 273°
2026-05-05 11:16 27.16134 44.46327 28910 ft 408 kts 273°
2026-05-05 11:16 27.16803 44.39993 28925 ft 408 kts 273°
2026-05-05 11:17 27.17462 44.33695 28905 ft 407 kts 273°
2026-05-05 11:17 27.18118 44.27346 28909 ft 406 kts 273°
2026-05-05 11:18 27.18765 44.21077 28924 ft 405 kts 273°
2026-05-05 11:18 27.19410 44.14787 28913 ft 405 kts 273°
2026-05-05 11:18 27.19733 44.11629 28812 ft 406 kts 273°
2026-05-05 11:19 27.20051 44.08549 28885 ft 391 kts 273°
2026-05-05 11:19 27.20675 44.02373 28934 ft 406 kts 273°
2026-05-05 11:20 27.21312 43.96068 28911 ft 404 kts 273°
2026-05-05 11:20 27.21939 43.89861 28916 ft 401 kts 273°
2026-05-05 11:21 27.22563 43.83643 28900 ft 400 kts 273°
2026-05-05 11:21 27.23184 43.77418 28921 ft 401 kts 273°
2026-05-05 11:22 27.23806 43.71162 28929 ft 403 kts 273°
2026-05-05 11:22 27.24430 43.64883 28922 ft 404 kts 273°
2026-05-05 11:23 27.25052 43.58606 28936 ft 404 kts 273°
2026-05-05 11:23 27.25672 43.52327 28924 ft 403 kts 273°
2026-05-05 11:24 27.26286 43.46074 28930 ft 402 kts 273°
2026-05-05 11:24 27.26897 43.39824 28928 ft 401 kts 273°
2026-05-05 11:25 27.27503 43.33600 28932 ft 400 kts 273°
2026-05-05 11:25 27.28104 43.27393 28938 ft 399 kts 273°
2026-05-05 11:26 27.28700 43.21194 28958 ft 398 kts 273°
2026-05-05 11:26 27.29295 43.14992 28947 ft 399 kts 273°
2026-05-05 11:27 27.29886 43.08795 28939 ft 398 kts 273°
2026-05-05 11:27 27.30473 43.02624 28940 ft 399 kts 273°
2026-05-05 11:28 27.31059 42.96420 28951 ft 399 kts 273°
2026-05-05 11:28 27.31644 42.90200 28948 ft 399 kts 273°
2026-05-05 11:29 27.32226 42.83984 28956 ft 399 kts 273°
2026-05-05 11:29 27.32805 42.77774 28953 ft 399 kts 273°
2026-05-05 11:30 27.33381 42.71560 28951 ft 399 kts 273°
2026-05-05 11:30 27.33954 42.65350 28966 ft 399 kts 273°
2026-05-05 11:31 27.34521 42.59173 28986 ft 399 kts 272°
2026-05-05 11:31 27.35088 42.52962 28978 ft 398 kts 272°
2026-05-05 11:32 27.35557 42.47806 28971 ft 398 kts 272°